Time,TemperatureF,DewpointF,PressureIn,WindDirection,WindDirectionDegrees,WindSpeedMPH,WindSpeedGustMPH,Humidity,HourlyPrecipIn,Conditions,Clouds,dailyrainin,SoftwareType,DateUTC
2013-02-03 00:00:00,27.2,25.7,30.16,NW,319,2.0,2.0,94,0.00,,,0.01,Wunderground v.1.15,2013-02-03 05:00:00,
2013-02-03 00:10:00,27.4,25.9,30.16,NW,323,1.0,1.0,94,0.00,,,0.00,Wunderground v.1.15,2013-02-03 05:10:00,
2013-02-03 00:15:00,27.4,25.9,30.15,NNW,327,1.0,1.0,94,0.00,,,0.00,Wunderground v.1.15,2013-02-03 05:15:00,
2013-02-03 00:20:00,27.5,25.7,30.15,NW,322,1.0,1.0,93,0.00,,,0.00,Wunderground v.1.15,2013-02-03 05:20:00,
2013-02-03 00:25:00,27.5,25.7,30.15,NNW,333,1.0,1.0,93,0.00,,,0.00,Wunderground v.1.15,2013-02-03 05:25:00,
2013-02-03 00:30:00,27.6,25.8,30.14,NNW,333,0.0,0.0,93,0.00,,,0.00,Wunderground v.1.15,2013-02-03 05:30:00,
2013-02-03 00:40:00,27.7,25.9,30.14,NNW,333,0.0,0.0,93,0.00,,,0.00,Wunderground v.1.15,2013-02-03 05:40:00,
2013-02-03 00:45:00,27.8,26.3,30.14,NNW,333,0.0,1.0,94,0.00,,,0.00,Wunderground v.1.15,2013-02-03 05:45:00,
2013-02-03 00:55:00,27.8,26.3,30.14,NNW,333,0.0,0.0,94,0.00,,,0.00,Wunderground v.1.15,2013-02-03 05:55:00,
2013-02-03 01:00:00,27.9,26.4,30.14,NNW,333,0.0,1.0,94,0.00,,,0.00,Wunderground v.1.15,2013-02-03 06:00:00,
2013-02-03 01:10:00,27.9,26.4,30.14,NNW,334,1.0,1.0,94,0.00,,,0.00,Wunderground v.1.15,2013-02-03 06:10:00,
2013-02-03 01:15:00,27.9,26.4,30.13,NNW,334,0.0,1.0,94,0.00,,,0.00,Wunderground v.1.15,2013-02-03 06:15:00,
2013-02-03 01:25:00,27.9,26.4,30.13,NNW,331,1.0,1.0,94,0.00,,,0.00,Wunderground v.1.15,2013-02-03 06:25:00,
2013-02-03 01:30:00,27.9,26.4,30.13,NNW,331,0.0,0.0,94,0.00,,,0.00,Wunderground v.1.15,2013-02-03 06:30:00,
2013-02-03 01:40:00,27.9,26.4,30.12,NW,322,1.0,1.0,94,0.00,,,0.00,Wunderground v.1.15,2013-02-03 06:40:00,
2013-02-03 01:45:00,27.9,26.4,30.12,NW,304,1.0,1.0,94,0.00,,,0.00,Wunderground v.1.15,2013-02-03 06:45:00,
2013-02-03 01:50:00,27.9,26.4,30.12,NW,325,1.0,1.0,94,0.00,,,0.00,Wunderground v.1.15,2013-02-03 06:50:00,
2013-02-03 01:55:00,27.9,26.4,30.11,NW,325,1.0,1.0,94,0.00,,,0.00,Wunderground v.1.15,2013-02-03 06:55:00,
2013-02-03 02:05:00,27.8,26.3,30.11,NNW,332,2.0,4.0,94,0.00,,,0.00,Wunderground v.1.15,2013-02-03 07:05:00,
2013-02-03 02:10:00,27.9,26.4,30.11,NNW,331,2.0,3.0,94,0.00,,,0.00,Wunderground v.1.15,2013-02-03 07:10:00,
2013-02-03 02:15:00,27.9,26.4,30.11,NW,319,2.0,3.0,94,0.00,,,0.00,Wunderground v.1.15,2013-02-03 07:15:00,
2013-02-03 02:25:00,27.9,26.4,30.10,NNW,329,2.0,2.0,94,0.00,,,0.00,Wunderground v.1.15,2013-02-03 07:25:00,
2013-02-03 02:30:00,27.9,26.4,30.10,NNW,329,2.0,2.0,94,0.00,,,0.00,Wunderground v.1.15,2013-02-03 07:30:00,
2013-02-03 02:35:00,27.9,26.4,30.10,NW,324,1.0,2.0,94,0.00,,,0.00,Wunderground v.1.15,2013-02-03 07:35:00,
2013-02-03 02:40:00,27.9,26.4,30.09,NW,311,1.0,2.0,94,0.00,,,0.00,Wunderground v.1.15,2013-02-03 07:40:00,
2013-02-03 02:50:00,28.0,26.5,30.09,NW,304,1.0,1.0,94,0.00,,,0.00,Wunderground v.1.15,2013-02-03 07:50:00,
2013-02-03 02:55:00,28.0,26.5,30.09,NW,321,2.0,2.0,94,0.00,,,0.00,Wunderground v.1.15,2013-02-03 07:55:00,
2013-02-03 03:00:00,28.0,26.5,30.09,NW,318,2.0,2.0,94,0.00,,,0.00,Wunderground v.1.15,2013-02-03 08:00:00,
2013-02-03 03:10:00,28.0,26.5,30.09,WNW,288,2.0,3.0,94,0.00,,,0.00,Wunderground v.1.15,2013-02-03 08:10:00,
2013-02-03 03:15:00,28.2,26.7,30.08,WNW,302,3.0,3.0,94,0.00,,,0.00,Wunderground v.1.15,2013-02-03 08:15:00,
2013-02-03 03:25:00,28.7,27.2,30.08,NW,323,3.0,3.0,94,0.00,,,0.00,Wunderground v.1.15,2013-02-03 08:25:00,
2013-02-03 03:30:00,29.0,27.5,30.08,West,277,5.0,8.0,94,0.00,,,0.00,Wunderground v.1.15,2013-02-03 08:30:00,
2013-02-03 03:35:00,29.2,27.4,30.08,WNW,288,5.0,8.0,93,0.00,,,0.00,Wunderground v.1.15,2013-02-03 08:35:00,
2013-02-03 03:40:00,29.3,27.3,30.08,WNW,303,6.0,6.0,92,0.00,,,0.00,Wunderground v.1.15,2013-02-03 08:40:00,
2013-02-03 03:45:00,29.4,27.1,30.08,WNW,290,7.0,9.0,91,0.00,,,0.00,Wunderground v.1.15,2013-02-03 08:45:00,
2013-02-03 03:55:00,29.4,26.6,30.08,NNW,329,7.0,9.0,89,0.00,,,0.00,Wunderground v.1.15,2013-02-03 08:55:00,
2013-02-03 04:00:00,29.4,26.6,30.08,West,278,6.0,6.0,89,0.00,,,0.00,Wunderground v.1.15,2013-02-03 09:00:00,
2013-02-03 04:10:00,29.4,26.3,30.08,WNW,294,6.0,6.0,88,0.00,,,0.00,Wunderground v.1.15,2013-02-03 09:10:00,
2013-02-03 04:15:00,29.3,25.9,30.08,WNW,302,5.0,10.0,87,0.00,,,0.00,Wunderground v.1.15,2013-02-03 09:15:00,
2013-02-03 04:20:00,29.2,25.8,30.08,NW,312,5.0,5.0,87,0.00,,,0.00,Wunderground v.1.15,2013-02-03 09:20:00,
2013-02-03 04:25:00,29.1,25.7,30.08,WNW,289,5.0,6.0,87,0.00,,,0.00,Wunderground v.1.15,2013-02-03 09:25:00,
2013-02-03 04:30:00,29.1,25.7,30.08,NNW,329,4.0,4.0,87,0.00,,,0.00,Wunderground v.1.15,2013-02-03 09:30:00,
2013-02-03 04:40:00,28.9,25.8,30.07,NW,323,2.0,2.0,88,0.00,,,0.00,Wunderground v.1.15,2013-02-03 09:40:00,
2013-02-03 04:45:00,28.9,25.8,30.07,NW,313,2.0,4.0,88,0.00,,,0.00,Wunderground v.1.15,2013-02-03 09:45:00,
2013-02-03 04:55:00,28.8,25.7,30.07,WNW,294,2.0,3.0,88,0.00,,,0.00,Wunderground v.1.15,2013-02-03 09:55:00,
2013-02-03 05:00:00,28.8,25.7,30.07,NW,323,2.0,2.0,88,0.00,,,0.00,Wunderground v.1.15,2013-02-03 10:00:00,
2013-02-03 05:10:00,28.7,25.6,30.08,WNW,296,3.0,3.0,88,0.00,,,0.00,Wunderground v.1.15,2013-02-03 10:10:00,
2013-02-03 05:15:00,28.7,25.6,30.08,NW,306,3.0,3.0,88,0.00,,,0.00,Wunderground v.1.15,2013-02-03 10:15:00,
2013-02-03 05:20:00,28.7,25.6,30.08,NW,322,2.0,2.0,88,0.00,,,0.00,Wunderground v.1.15,2013-02-03 10:20:00,
2013-02-03 05:25:00,28.7,25.6,30.07,NNW,336,2.0,3.0,88,0.00,,,0.00,Wunderground v.1.15,2013-02-03 10:25:00,
2013-02-03 05:30:00,28.9,25.8,30.07,NW,309,3.0,3.0,88,0.00,,,0.00,Wunderground v.1.15,2013-02-03 10:30:00,
2013-02-03 05:40:00,29.0,25.9,30.07,West,271,3.0,3.0,88,0.00,,,0.00,Wunderground v.1.15,2013-02-03 10:40:00,
2013-02-03 05:45:00,28.8,25.7,30.07,West,271,1.0,3.0,88,0.00,,,0.00,Wunderground v.1.15,2013-02-03 10:45:00,
2013-02-03 05:55:00,28.4,25.6,30.07,West,271,0.0,0.0,89,0.00,,,0.00,Wunderground v.1.15,2013-02-03 10:55:00,
2013-02-03 06:00:00,28.2,25.4,30.07,West,271,0.0,0.0,89,0.00,,,0.00,Wunderground v.1.15,2013-02-03 11:00:00,
2013-02-03 06:05:00,28.1,25.5,30.07,NW,304,0.0,1.0,90,0.00,,,0.00,Wunderground v.1.15,2013-02-03 11:05:00,
2013-02-03 06:10:00,28.1,25.5,30.07,NW,304,0.0,0.0,90,0.00,,,0.00,Wunderground v.1.15,2013-02-03 11:10:00,
2013-02-03 06:20:00,28.0,25.4,30.06,NW,304,0.0,0.0,90,0.00,,,0.00,Wunderground v.1.15,2013-02-03 11:20:00,
2013-02-03 06:25:00,28.0,25.7,30.06,NW,304,0.0,0.0,91,0.00,,,0.00,Wunderground v.1.15,2013-02-03 11:25:00,
2013-02-03 06:30:00,28.0,25.7,30.05,NW,321,0.0,1.0,91,0.00,,,0.00,Wunderground v.1.15,2013-02-03 11:30:00,
2013-02-03 06:40:00,28.1,25.8,30.05,NW,325,0.0,1.0,91,0.00,,,0.00,Wunderground v.1.15,2013-02-03 11:40:00,
2013-02-03 06:45:00,28.2,26.2,30.05,NW,325,1.0,1.0,92,0.00,,,0.00,Wunderground v.1.15,2013-02-03 11:45:00,
2013-02-03 06:55:00,28.4,26.4,30.05,NW,319,1.0,2.0,92,0.00,,,0.00,Wunderground v.1.15,2013-02-03 11:55:00,
2013-02-03 07:00:00,28.4,26.4,30.05,NW,325,1.0,2.0,92,0.00,,,0.00,Wunderground v.1.15,2013-02-03 12:00:00,
2013-02-03 07:05:00,28.5,26.5,30.05,NNW,344,1.0,2.0,92,0.00,,,0.00,Wunderground v.1.15,2013-02-03 12:05:00,
2013-02-03 07:10:00,28.5,26.5,30.05,NW,323,1.0,2.0,92,0.00,,,0.00,Wunderground v.1.15,2013-02-03 12:10:00,
2013-02-03 07:15:00,28.6,26.6,30.05,WNW,294,1.0,4.0,92,0.00,,,0.00,Wunderground v.1.15,2013-02-03 12:15:00,
2013-02-03 07:25:00,28.7,26.7,30.05,NNW,333,2.0,2.0,92,0.00,,,0.00,Wunderground v.1.15,2013-02-03 12:25:00,
2013-02-03 07:35:00,28.8,26.8,30.05,NW,315,1.0,3.0,92,0.00,,,0.00,Wunderground v.1.15,2013-02-03 12:35:00,
2013-02-03 07:40:00,28.8,26.8,30.04,NW,304,2.0,2.0,92,0.00,,,0.00,Wunderground v.1.15,2013-02-03 12:40:00,
2013-02-03 07:45:00,28.9,26.9,30.04,NNW,338,2.0,2.0,92,0.00,,,0.00,Wunderground v.1.15,2013-02-03 12:45:00,
2013-02-03 07:50:00,28.9,26.9,30.04,WNW,303,2.0,2.0,92,0.00,,,0.00,Wunderground v.1.15,2013-02-03 12:50:00,
2013-02-03 07:55:00,29.0,27.0,30.04,NNW,329,1.0,4.0,92,0.00,,,0.00,Wunderground v.1.15,2013-02-03 12:55:00,
2013-02-03 08:00:00,29.0,27.0,30.04,West,277,2.0,2.0,92,0.00,,,0.00,Wunderground v.1.15,2013-02-03 13:00:00,
2013-02-03 08:10:00,29.2,27.2,30.04,NW,321,2.0,6.0,92,0.00,,,0.00,Wunderground v.1.15,2013-02-03 13:10:00,
2013-02-03 08:15:00,29.2,27.2,30.04,NW,317,2.0,6.0,92,0.00,,,0.00,Wunderground v.1.15,2013-02-03 13:15:00,
2013-02-03 08:25:00,29.3,27.3,30.04,NW,315,2.0,2.0,92,0.00,,,0.00,Wunderground v.1.15,2013-02-03 13:25:00,
2013-02-03 08:30:00,29.3,27.3,30.04,NW,320,2.0,2.0,92,0.00,,,0.00,Wunderground v.1.15,2013-02-03 13:30:00,
2013-02-03 08:35:00,29.3,27.3,30.04,NW,306,2.0,2.0,92,0.00,,,0.00,Wunderground v.1.15,2013-02-03 13:35:00,
2013-02-03 08:40:00,29.4,27.4,30.03,NW,314,2.0,2.0,92,0.00,,,0.00,Wunderground v.1.15,2013-02-03 13:40:00,
2013-02-03 08:45:00,29.4,27.4,30.04,NW,319,2.0,2.0,92,0.00,,,0.00,Wunderground v.1.15,2013-02-03 13:45:00,
2013-02-03 08:55:00,29.5,27.7,30.04,NW,316,2.0,2.0,93,0.00,,,0.00,Wunderground v.1.15,2013-02-03 13:55:00,
2013-02-03 09:00:00,29.6,27.8,30.04,West,260,2.0,2.0,93,0.00,,,0.00,Wunderground v.1.15,2013-02-03 14:00:00,
2013-02-03 09:10:00,29.9,27.9,30.04,NW,309,2.0,2.0,92,0.00,,,0.00,Wunderground v.1.15,2013-02-03 14:10:00,
2013-02-03 09:15:00,30.1,28.1,30.04,NW,314,2.0,2.0,92,0.00,,,0.00,Wunderground v.1.15,2013-02-03 14:15:00,
2013-02-03 09:25:00,30.3,28.3,30.03,NW,305,3.0,3.0,92,0.00,,,0.00,Wunderground v.1.15,2013-02-03 14:25:00,
2013-02-03 09:35:00,30.7,28.7,30.03,NNW,335,2.0,6.0,92,0.00,,,0.00,Wunderground v.1.15,2013-02-03 14:35:00,
2013-02-03 09:40:00,30.9,28.9,30.03,West,267,2.0,3.0,92,0.00,,,0.00,Wunderground v.1.15,2013-02-03 14:40:00,
2013-02-03 09:45:00,31.0,28.7,30.03,NNW,327,2.0,3.0,91,0.00,,,0.00,Wunderground v.1.15,2013-02-03 14:45:00,
2013-02-03 09:55:00,31.0,28.4,30.03,NW,311,3.0,3.0,90,0.00,,,0.00,Wunderground v.1.15,2013-02-03 14:55:00,
2013-02-03 10:05:00,31.2,28.6,30.02,NW,313,3.0,6.0,90,0.00,,,0.00,Wunderground v.1.15,2013-02-03 15:05:00,
2013-02-03 10:10:00,31.3,28.7,30.02,NW,314,3.0,4.0,90,0.00,,,0.00,Wunderground v.1.15,2013-02-03 15:10:00,
2013-02-03 10:15:00,31.5,28.6,30.02,NW,322,3.0,4.0,89,0.00,,,0.00,Wunderground v.1.15,2013-02-03 15:15:00,
2013-02-03 10:20:00,31.6,28.7,30.02,NNW,338,2.0,2.0,89,0.00,,,0.00,Wunderground v.1.15,2013-02-03 15:20:00,
2013-02-03 10:25:00,31.6,28.7,30.02,NW,319,1.0,5.0,89,0.00,,,0.00,Wunderground v.1.15,2013-02-03 15:25:00,
2013-02-03 10:30:00,31.5,28.6,30.02,NW,323,2.0,2.0,89,0.00,,,0.00,Wunderground v.1.15,2013-02-03 15:30:00,
2013-02-03 10:40:00,31.4,28.5,30.02,WNW,295,2.0,5.0,89,0.00,,,0.00,Wunderground v.1.15,2013-02-03 15:40:00,
2013-02-03 10:45:00,31.3,28.7,30.02,SSW,205,3.0,5.0,90,0.00,,,0.00,Wunderground v.1.15,2013-02-03 15:45:00,
2013-02-03 10:55:00,31.4,28.8,30.02,NNW,331,3.0,4.0,90,0.00,,,0.00,Wunderground v.1.15,2013-02-03 15:55:00,
2013-02-03 11:00:00,31.3,28.7,30.02,NW,319,3.0,3.0,90,0.00,,,0.00,Wunderground v.1.15,2013-02-03 16:00:00,
2013-02-03 11:10:00,31.4,28.8,30.02,NNW,335,2.0,4.0,90,0.00,,,0.00,Wunderground v.1.15,2013-02-03 16:10:00,
2013-02-03 11:15:00,31.3,29.0,30.02,NW,313,3.0,6.0,91,0.00,,,0.00,Wunderground v.1.15,2013-02-03 16:15:00,
2013-02-03 11:25:00,31.2,28.9,30.01,WNW,296,3.0,5.0,91,0.00,,,0.00,Wunderground v.1.15,2013-02-03 16:25:00,
2013-02-03 11:30:00,31.1,28.8,30.01,NW,325,4.0,4.0,91,0.00,,,0.00,Wunderground v.1.15,2013-02-03 16:30:00,
2013-02-03 11:40:00,31.7,29.6,30.01,NNW,336,1.0,1.0,92,0.00,,,0.00,Wunderground v.1.15,2013-02-03 16:40:00,
2013-02-03 11:45:00,31.9,29.8,30.01,NW,323,1.0,1.0,92,0.00,,,0.00,Wunderground v.1.15,2013-02-03 16:45:00,
2013-02-03 11:55:00,32.0,29.9,30.00,NW,306,2.0,5.0,92,0.00,,,0.00,Wunderground v.1.15,2013-02-03 16:55:00,
2013-02-03 12:05:00,31.9,29.6,30.00,NW,322,2.0,2.0,91,0.00,,,0.00,Wunderground v.1.15,2013-02-03 17:05:00,
2013-02-03 12:10:00,31.9,29.6,30.00,NW,325,2.0,4.0,91,0.00,,,0.00,Wunderground v.1.15,2013-02-03 17:10:00,
2013-02-03 12:15:00,31.9,29.6,30.00,WNW,290,2.0,4.0,91,0.00,,,0.00,Wunderground v.1.15,2013-02-03 17:15:00,
2013-02-03 12:25:00,32.2,29.9,30.00,NW,321,2.0,2.0,91,0.00,,,0.00,Wunderground v.1.15,2013-02-03 17:25:00,
2013-02-03 12:30:00,32.5,30.2,30.00,NNW,333,2.0,2.0,91,0.00,,,0.00,Wunderground v.1.15,2013-02-03 17:30:00,
2013-02-03 12:40:00,32.8,30.2,29.99,NW,316,3.0,5.0,90,0.00,,,0.00,Wunderground v.1.15,2013-02-03 17:40:00,
2013-02-03 12:45:00,32.9,30.3,29.99,NNW,330,3.0,5.0,90,0.00,,,0.00,Wunderground v.1.15,2013-02-03 17:45:00,
2013-02-03 12:55:00,32.9,30.0,29.99,NW,323,2.0,5.0,89,0.00,,,0.00,Wunderground v.1.15,2013-02-03 17:55:00,
2013-02-03 13:00:00,32.9,30.0,29.99,NNW,332,3.0,3.0,89,0.00,,,0.00,Wunderground v.1.15,2013-02-03 18:00:00,
2013-02-03 13:05:00,32.8,29.9,29.99,West,275,4.0,4.0,89,0.00,,,0.00,Wunderground v.1.15,2013-02-03 18:05:00,
2013-02-03 13:10:00,32.9,30.0,29.99,West,276,3.0,4.0,89,0.00,,,0.00,Wunderground v.1.15,2013-02-03 18:10:00,
2013-02-03 13:20:00,33.2,30.0,29.99,WNW,282,4.0,4.0,88,0.00,,,0.01,Wunderground v.1.15,2013-02-03 18:20:00,
2013-02-03 13:25:00,33.3,30.1,29.99,WNW,301,4.0,4.0,88,0.00,,,0.01,Wunderground v.1.15,2013-02-03 18:25:00,
2013-02-03 13:30:00,33.4,30.2,29.99,WNW,289,3.0,4.0,88,0.00,,,0.01,Wunderground v.1.15,2013-02-03 18:30:00,
2013-02-03 13:40:00,33.5,30.0,29.99,NW,306,4.0,4.0,87,0.04,,,0.02,Wunderground v.1.15,2013-02-03 18:40:00,
2013-02-03 13:45:00,33.7,29.7,29.99,NW,314,4.0,4.0,85,0.04,,,0.02,Wunderground v.1.15,2013-02-03 18:45:00,
2013-02-03 13:55:00,33.6,29.6,30.00,NW,313,6.0,6.0,85,0.00,,,0.02,Wunderground v.1.15,2013-02-03 18:55:00,
2013-02-03 14:05:00,33.3,29.6,30.00,NNW,327,5.0,9.0,86,0.00,,,0.02,Wunderground v.1.15,2013-02-03 19:05:00,
2013-02-03 14:10:00,33.3,29.8,30.00,South,175,5.0,5.0,87,0.00,,,0.02,Wunderground v.1.15,2013-02-03 19:10:00,
2013-02-03 14:15:00,33.3,29.8,30.00,NW,318,5.0,5.0,87,0.00,,,0.02,Wunderground v.1.15,2013-02-03 19:15:00,
2013-02-03 14:25:00,33.1,29.7,30.00,NNW,329,4.0,5.0,87,0.00,,,0.02,Wunderground v.1.15,2013-02-03 19:25:00,
2013-02-03 14:30:00,32.9,29.7,30.01,NW,309,4.0,4.0,88,0.00,,,0.02,Wunderground v.1.15,2013-02-03 19:30:00,
2013-02-03 14:40:00,32.3,29.7,30.02,WNW,284,5.0,5.0,90,0.00,,,0.03,Wunderground v.1.15,2013-02-03 19:40:00,
2013-02-03 14:45:00,32.3,29.7,30.02,NW,321,6.0,6.0,90,0.00,,,0.03,Wunderground v.1.15,2013-02-03 19:45:00,
2013-02-03 14:50:00,32.5,29.6,30.02,West,269,6.0,14.0,89,0.00,,,0.03,Wunderground v.1.15,2013-02-03 19:50:00,
2013-02-03 14:55:00,32.9,29.5,30.02,NW,311,7.0,15.0,87,0.00,,,0.03,Wunderground v.1.15,2013-02-03 19:55:00,
2013-02-03 15:00:00,33.2,29.5,30.02,NNW,346,8.0,8.0,86,0.00,,,0.03,Wunderground v.1.15,2013-02-03 20:00:00,
2013-02-03 15:10:00,33.3,29.3,30.02,NW,321,7.0,9.0,85,0.00,,,0.03,Wunderground v.1.15,2013-02-03 20:10:00,
2013-02-03 15:15:00,33.4,29.1,30.03,NW,310,6.0,9.0,84,0.00,,,0.03,Wunderground v.1.15,2013-02-03 20:15:00,
2013-02-03 15:25:00,33.5,29.2,30.03,WNW,292,7.0,7.0,84,0.00,,,0.04,Wunderground v.1.15,2013-02-03 20:25:00,
2013-02-03 15:30:00,33.5,28.9,30.03,NNW,327,7.0,10.0,83,0.00,,,0.04,Wunderground v.1.15,2013-02-03 20:30:00,
2013-02-03 15:35:00,33.5,28.6,30.03,NW,310,8.0,10.0,82,0.00,,,0.04,Wunderground v.1.15,2013-02-03 20:35:00,
2013-02-03 15:40:00,33.7,28.8,30.03,NW,310,7.0,7.0,82,0.00,,,0.04,Wunderground v.1.15,2013-02-03 20:40:00,
2013-02-03 15:45:00,33.7,28.5,30.03,NW,313,6.0,7.0,81,0.00,,,0.04,Wunderground v.1.15,2013-02-03 20:45:00,
2013-02-03 15:55:00,33.6,28.4,30.03,WNW,301,7.0,7.0,81,0.00,,,0.05,Wunderground v.1.15,2013-02-03 20:55:00,
2013-02-03 16:00:00,33.5,28.3,30.03,NW,315,7.0,7.0,81,0.00,,,0.05,Wunderground v.1.15,2013-02-03 21:00:00,
2013-02-03 16:10:00,33.5,28.0,30.04,WNW,292,7.0,7.0,80,0.00,,,0.05,Wunderground v.1.15,2013-02-03 21:10:00,
2013-02-03 16:15:00,33.6,27.8,30.04,West,278,8.0,8.0,79,0.00,,,0.05,Wunderground v.1.15,2013-02-03 21:15:00,
2013-02-03 16:20:00,33.7,27.9,30.05,WNW,290,9.0,9.0,79,0.00,,,0.05,Wunderground v.1.15,2013-02-03 21:20:00,
2013-02-03 16:25:00,33.7,28.2,30.05,SW,221,8.0,11.0,80,0.00,,,0.05,Wunderground v.1.15,2013-02-03 21:25:00,
2013-02-03 16:30:00,33.6,27.8,30.05,WNW,282,7.0,12.0,79,0.00,,,0.05,Wunderground v.1.15,2013-02-03 21:30:00,
2013-02-03 16:40:00,33.3,27.8,30.06,NW,305,7.0,8.0,80,0.00,,,0.06,Wunderground v.1.15,2013-02-03 21:40:00,
2013-02-03 16:45:00,33.3,27.8,30.06,WNW,294,6.0,9.0,80,0.00,,,0.06,Wunderground v.1.15,2013-02-03 21:45:00,
2013-02-03 16:55:00,33.1,27.6,30.06,WNW,291,6.0,6.0,80,0.00,,,0.06,Wunderground v.1.15,2013-02-03 21:55:00,
2013-02-03 17:00:00,32.9,27.7,30.06,WNW,302,6.0,6.0,81,0.00,,,0.06,Wunderground v.1.15,2013-02-03 22:00:00,
2013-02-03 17:05:00,32.7,27.8,30.06,WNW,292,5.0,6.0,82,0.00,,,0.06,Wunderground v.1.15,2013-02-03 22:05:00,
2013-02-03 17:10:00,32.5,27.9,30.07,NW,321,5.0,5.0,83,0.00,,,0.06,Wunderground v.1.15,2013-02-03 22:10:00,
2013-02-03 17:15:00,32.3,28.0,30.07,WNW,295,5.0,7.0,84,0.00,,,0.06,Wunderground v.1.15,2013-02-03 22:15:00,
2013-02-03 17:25:00,31.9,27.9,30.07,NW,309,5.0,5.0,85,0.00,,,0.06,Wunderground v.1.15,2013-02-03 22:25:00,
2013-02-03 17:30:00,31.8,27.8,30.07,NW,324,5.0,5.0,85,0.00,,,0.06,Wunderground v.1.15,2013-02-03 22:30:00,
2013-02-03 17:40:00,31.5,27.8,30.08,WNW,291,4.0,4.0,86,0.00,,,0.06,Wunderground v.1.15,2013-02-03 22:40:00,
2013-02-03 17:45:00,31.5,27.8,30.08,WNW,288,5.0,8.0,86,0.00,,,0.06,Wunderground v.1.15,2013-02-03 22:45:00,
2013-02-03 17:50:00,31.4,27.7,30.08,NW,320,6.0,6.0,86,0.00,,,0.06,Wunderground v.1.15,2013-02-03 22:50:00,
2013-02-03 17:55:00,31.4,27.7,30.08,NW,321,6.0,6.0,86,0.00,,,0.06,Wunderground v.1.15,2013-02-03 22:55:00,
2013-02-03 18:00:00,31.3,27.3,30.08,NW,315,5.0,7.0,85,0.00,,,0.06,Wunderground v.1.15,2013-02-03 23:00:00,
2013-02-03 18:10:00,31.4,27.4,30.08,WNW,294,6.0,9.0,85,0.00,,,0.06,Wunderground v.1.15,2013-02-03 23:10:00,
2013-02-03 18:15:00,31.5,27.2,30.09,WNW,302,6.0,9.0,84,0.00,,,0.06,Wunderground v.1.15,2013-02-03 23:15:00,
2013-02-03 18:25:00,31.6,27.3,30.09,SW,214,7.0,7.0,84,0.00,,,0.06,Wunderground v.1.15,2013-02-03 23:25:00,
2013-02-03 18:30:00,31.6,27.3,30.09,NW,305,7.0,7.0,84,0.00,,,0.06,Wunderground v.1.15,2013-02-03 23:30:00,
2013-02-03 18:40:00,31.6,27.3,30.10,NNW,329,7.0,7.0,84,0.00,,,0.06,Wunderground v.1.15,2013-02-03 23:40:00,
2013-02-03 18:45:00,31.6,27.3,30.10,NNW,338,6.0,7.0,84,0.00,,,0.07,Wunderground v.1.15,2013-02-03 23:45:00,
2013-02-03 18:55:00,31.6,26.7,30.10,NW,317,8.0,9.0,82,0.00,,,0.07,Wunderground v.1.15,2013-02-03 23:55:00,
2013-02-03 19:00:00,31.6,26.7,30.10,NW,323,8.0,11.0,82,0.00,,,0.07,Wunderground v.1.15,2013-02-04 00:00:00,
2013-02-03 19:05:00,31.6,26.7,30.11,WNW,283,9.0,11.0,82,0.00,,,0.07,Wunderground v.1.15,2013-02-04 00:05:00,
2013-02-03 19:10:00,31.5,26.6,30.11,NW,304,8.0,8.0,82,0.00,,,0.07,Wunderground v.1.15,2013-02-04 00:10:00,
2013-02-03 19:15:00,31.4,26.2,30.11,West,280,6.0,8.0,81,0.00,,,0.07,Wunderground v.1.15,2013-02-04 00:15:00,
2013-02-03 19:25:00,31.4,25.9,30.12,NW,315,6.0,6.0,80,0.00,,,0.07,Wunderground v.1.15,2013-02-04 00:25:00,
2013-02-03 19:30:00,31.3,25.8,30.12,NNW,335,6.0,6.0,80,0.00,,,0.07,Wunderground v.1.15,2013-02-04 00:30:00,
2013-02-03 19:40:00,31.2,25.4,30.12,NW,322,8.0,8.0,79,0.00,,,0.07,Wunderground v.1.15,2013-02-04 00:40:00,
2013-02-03 19:45:00,31.2,25.4,30.12,NNW,338,6.0,11.0,79,0.00,,,0.07,Wunderground v.1.15,2013-02-04 00:45:00,
2013-02-03 19:55:00,31.1,25.0,30.13,WNW,299,7.0,14.0,78,0.00,,,0.07,Wunderground v.1.15,2013-02-04 00:55:00,
2013-02-03 20:05:00,31.1,25.0,30.13,West,269,8.0,12.0,78,0.00,,,0.07,Wunderground v.1.15,2013-02-04 01:05:00,
2013-02-03 20:10:00,31.1,25.0,30.13,NW,313,5.0,5.0,78,0.00,,,0.07,Wunderground v.1.15,2013-02-04 01:10:00,
2013-02-03 20:20:00,31.0,24.9,30.14,NNW,332,5.0,5.0,78,0.00,,,0.07,Wunderground v.1.15,2013-02-04 01:20:00,
2013-02-03 20:25:00,31.0,24.9,30.14,NW,317,4.0,5.0,78,0.00,,,0.07,Wunderground v.1.15,2013-02-04 01:25:00,
2013-02-03 20:30:00,30.9,24.8,30.14,NW,319,5.0,5.0,78,0.00,,,0.07,Wunderground v.1.15,2013-02-04 01:30:00,
2013-02-03 20:40:00,30.8,24.7,30.14,WNW,286,5.0,5.0,78,0.00,,,0.07,Wunderground v.1.15,2013-02-04 01:40:00,
2013-02-03 20:45:00,30.7,25.0,30.14,West,273,5.0,6.0,79,0.00,,,0.07,Wunderground v.1.15,2013-02-04 01:45:00,
2013-02-03 20:55:00,30.7,24.7,30.14,WNW,300,6.0,11.0,78,0.00,,,0.07,Wunderground v.1.15,2013-02-04 01:55:00,
2013-02-03 21:00:00,30.7,24.7,30.14,WNW,290,6.0,7.0,78,0.00,,,0.07,Wunderground v.1.15,2013-02-04 02:00:00,
2013-02-03 21:05:00,30.7,25.0,30.14,NNW,329,5.0,8.0,79,0.00,,,0.07,Wunderground v.1.15,2013-02-04 02:05:00,
2013-02-03 21:10:00,30.7,24.7,30.15,WNW,299,6.0,9.0,78,0.00,,,0.07,Wunderground v.1.15,2013-02-04 02:10:00,
2013-02-03 21:15:00,30.8,24.4,30.15,NW,311,7.0,9.0,77,0.00,,,0.07,Wunderground v.1.15,2013-02-04 02:15:00,
2013-02-03 21:25:00,30.8,24.7,30.15,NW,314,6.0,6.0,78,0.00,,,0.07,Wunderground v.1.15,2013-02-04 02:25:00,
2013-02-03 21:30:00,30.8,24.1,30.15,WNW,289,6.0,6.0,76,0.00,,,0.07,Wunderground v.1.15,2013-02-04 02:30:00,
2013-02-03 21:40:00,30.5,24.1,30.16,NW,312,4.0,5.0,77,0.00,,,0.07,Wunderground v.1.15,2013-02-04 02:40:00,
2013-02-03 21:45:00,30.4,24.1,30.16,NW,323,5.0,5.0,77,0.00,,,0.07,Wunderground v.1.15,2013-02-04 02:45:00,
2013-02-03 21:50:00,30.3,24.0,30.16,NNW,327,5.0,6.0,77,0.00,,,0.07,Wunderground v.1.15,2013-02-04 02:50:00,
2013-02-03 21:55:00,30.2,23.9,30.16,NW,320,6.0,7.0,77,0.00,,,0.07,Wunderground v.1.15,2013-02-04 02:55:00,
2013-02-03 22:00:00,30.1,24.1,30.17,WNW,295,6.0,10.0,78,0.00,,,0.07,Wunderground v.1.15,2013-02-04 03:00:00,
2013-02-03 22:10:00,29.9,23.9,30.16,West,277,8.0,10.0,78,0.00,,,0.07,Wunderground v.1.15,2013-02-04 03:10:00,
2013-02-03 22:15:00,29.9,23.9,30.16,WNW,303,8.0,10.0,78,0.00,,,0.07,Wunderground v.1.15,2013-02-04 03:15:00,
2013-02-03 22:25:00,29.7,23.7,30.17,NNE,22,5.0,7.0,78,0.00,,,0.07,Wunderground v.1.15,2013-02-04 03:25:00,
2013-02-03 22:30:00,29.6,23.9,30.17,WNW,292,4.0,10.0,79,0.00,,,0.07,Wunderground v.1.15,2013-02-04 03:30:00,
2013-02-03 22:40:00,29.5,23.2,30.17,NW,318,5.0,5.0,77,0.00,,,0.07,Wunderground v.1.15,2013-02-04 03:40:00,
2013-02-03 22:45:00,29.4,23.1,30.17,NNW,327,6.0,6.0,77,0.00,,,0.07,Wunderground v.1.15,2013-02-04 03:45:00,
2013-02-03 22:50:00,29.1,22.5,30.17,NW,313,4.0,5.0,76,0.00,,,0.07,Wunderground v.1.15,2013-02-04 03:50:00,
2013-02-03 22:55:00,29.0,22.4,30.17,NNW,336,3.0,5.0,76,0.00,,,0.07,Wunderground v.1.15,2013-02-04 03:55:00,
2013-02-03 23:00:00,28.9,22.0,30.18,NNW,338,5.0,7.0,75,0.00,,,0.07,Wunderground v.1.15,2013-02-04 04:00:00,
2013-02-03 23:10:00,28.7,21.5,30.18,SW,229,5.0,5.0,74,0.00,,,0.07,Wunderground v.1.15,2013-02-04 04:10:00,
2013-02-03 23:15:00,28.7,21.5,30.18,WNW,298,5.0,5.0,74,0.00,,,0.07,Wunderground v.1.15,2013-02-04 04:15:00,
2013-02-03 23:25:00,28.3,20.4,30.19,NW,310,7.0,7.0,72,0.00,,,0.07,Wunderground v.1.15,2013-02-04 04:25:00,
2013-02-03 23:30:00,28.1,19.9,30.19,WNW,286,8.0,8.0,71,0.00,,,0.07,Wunderground v.1.15,2013-02-04 04:30:00,
2013-02-03 23:35:00,28.0,19.8,30.19,NW,308,7.0,8.0,71,0.00,,,0.07,Wunderground v.1.15,2013-02-04 04:35:00,
2013-02-03 23:40:00,27.9,19.7,30.19,NNW,340,5.0,5.0,71,0.00,,,0.07,Wunderground v.1.15,2013-02-04 04:40:00,
2013-02-03 23:45:00,27.8,19.6,30.19,WNW,303,4.0,5.0,71,0.00,,,0.07,Wunderground v.1.15,2013-02-04 04:45:00,
2013-02-03 23:55:00,27.5,19.7,30.19,WNW,288,3.0,6.0,72,0.00,,,0.07,Wunderground v.1.15,2013-02-04 04:55:00,